• In Uzbekistan
  • List of Countries
  • For 7 days
  • Water Temperature
  • Satellite Maps
  • Weather Map
  • Weather Widgets
  • user-avatar
    Login

    Hourly Weather Bulawayo

    Today, 23 November, Thursday

    Time Temperature Precipitation Wind Pressure Humidity
    00:00 +26°C° 0 mm 3 mps 648 mmHg 23%
    01:00 +25°C° 0 mm 3 mps 648 mmHg 25%
    02:00 +25°C° 0 mm 3 mps 648 mmHg 26%
    03:00 +24°C° 0 mm 3 mps 648 mmHg 30%
    04:00 +24°C° 0 mm 3 mps 648 mmHg 33%
    05:00 +24°C° 0 mm 3 mps 648 mmHg 37%
    06:00 +25°C° 0 mm 4 mps 649 mmHg 38%
    07:00 +26°C° 0 mm 6 mps 650 mmHg 39%
    08:00 +27°C° 0 mm 7 mps 650 mmHg 41%
    09:00 +28°C° 0 mm 6 mps 651 mmHg 38%
    10:00 +29°C° 0 mm 6 mps 651 mmHg 35%
    11:00 +32°C° 0 mm 6 mps 651 mmHg 32%
    12:00 +32°C° 0 mm 6 mps 651 mmHg 31%
    13:00 +32°C° 0 mm 5 mps 650 mmHg 31%
    14:00 +32°C° 0 mm 5 mps 650 mmHg 30%
    15:00 +32°C° 0 mm 5 mps 650 mmHg 31%
    16:00 +30°C° 0 mm 5 mps 650 mmHg 32%
    17:00 +30°C° 0 mm 5 mps 649 mmHg 33%
    18:00 +29°C° 0 mm 5 mps 649 mmHg 36%
    19:00 +27°C° 0 mm 5 mps 649 mmHg 39%
    20:00 +26°C° 0 mm 5 mps 650 mmHg 41%
    21:00 +25°C° 0 mm 5 mps 650 mmHg 43%
    22:00 +23°C° 0 mm 5 mps 650 mmHg 44%
    23:00 +23°C° 0 mm 4 mps 651 mmHg 46%

    Tomorrow, 24 November, Friday

    Time Temperature Precipitation Wind Pressure Humidity
    00:00 +22°C° 0 mm 4 mps 650 mmHg 46%
    01:00 +22°C° 0 mm 5 mps 650 mmHg 47%
    02:00 +21°C° 0 mm 5 mps 649 mmHg 47%
    03:00 +20°C° 0 mm 5 mps 649 mmHg 54%
    04:00 +20°C° 0 mm 5 mps 649 mmHg 61%
    05:00 +19°C° 0 mm 5 mps 649 mmHg 68%
    06:00 +20°C° 0 mm 5 mps 650 mmHg 66%
    07:00 +21°C° 0 mm 5 mps 650 mmHg 63%
    08:00 +21°C° 0 mm 5 mps 651 mmHg 61%
    09:00 +25°C° 0 mm 4 mps 651 mmHg 52%
    10:00 +27°C° 0 mm 4 mps 651 mmHg 44%
    11:00 +29°C° 0 mm 3 mps 652 mmHg 36%
    12:00 +30°C° 0 mm 3 mps 651 mmHg 32%
    13:00 +31°C° 0 mm 3 mps 650 mmHg 28%
    14:00 +34°C° 0 mm 2 mps 650 mmHg 24%
    15:00 +33°C° 0 mm 3 mps 649 mmHg 24%
    16:00 +33°C° 0 mm 3 mps 649 mmHg 25%
    17:00 +31°C° 0 mm 3 mps 648 mmHg 25%
    18:00 +30°C° 0 mm 3 mps 649 mmHg 28%
    19:00 +28°C° 0 mm 3 mps 649 mmHg 31%
    20:00 +27°C° 0 mm 3 mps 649 mmHg 34%
    21:00 +26°C° 0 mm 3 mps 648 mmHg 38%
    22:00 +25°C° 0 mm 3 mps 648 mmHg 41%
    23:00 +24°C° 0 mm 3 mps 648 mmHg 44%

    Day after tomorrow, 25 November, Saturday

    Time Temperature Precipitation Wind Pressure Humidity
    00:00 +23°C° 0 mm 2 mps 648 mmHg 48%
    01:00 +23°C° 0 mm 2 mps 647 mmHg 51%
    02:00 +21°C° 0 mm 2 mps 647 mmHg 54%
    03:00 +21°C° 0 mm 2 mps 647 mmHg 56%
    04:00 +21°C° 0 mm 2 mps 647 mmHg 58%
    05:00 +20°C° 0 mm 2 mps 647 mmHg 60%
    06:00 +22°C° 0.2 mm 3 mps 647 mmHg 58%
    07:00 +24°C° 0.2 mm 3 mps 648 mmHg 56%
    08:00 +26°C° 0.2 mm 3 mps 649 mmHg 55%
    09:00 +28°C° 0.3 mm 4 mps 649 mmHg 49%
    10:00 +29°C° 0.3 mm 4 mps 649 mmHg 43%
    11:00 +32°C° 0.3 mm 4 mps 649 mmHg 36%
    12:00 +32°C° 0.3 mm 4 mps 648 mmHg 39%
    13:00 +30°C° 0.3 mm 5 mps 648 mmHg 42%
    14:00 +29°C° 0.3 mm 6 mps 647 mmHg 45%
    15:00 +27°C° 1.5 mm 5 mps 646 mmHg 55%
    16:00 +25°C° 1.5 mm 5 mps 645 mmHg 65%
    17:00 +22°C° 1.5 mm 4 mps 644 mmHg 75%
    18:00 +21°C° 3.1 mm 5 mps 645 mmHg 78%
    19:00 +20°C° 3.1 mm 5 mps 645 mmHg 80%
    20:00 +19°C° 3.1 mm 5 mps 646 mmHg 83%
    21:00 +19°C° 1.2 mm 5 mps 646 mmHg 84%
    22:00 +19°C° 1.2 mm 4 mps 646 mmHg 84%
    23:00 +19°C° 1.2 mm 4 mps 646 mmHg 85%

    26 November, Sunday

    Time Temperature Precipitation Wind Pressure Humidity
    00:00 +19°C° 3 mm 3 mps 646 mmHg 86%
    01:00 +19°C° 3 mm 3 mps 646 mmHg 87%
    02:00 +19°C° 3 mm 2 mps 646 mmHg 88%
    03:00 +19°C° 0.9 mm 2 mps 646 mmHg 88%
    04:00 +19°C° 0.9 mm 2 mps 646 mmHg 88%
    05:00 +19°C° 0.9 mm 2 mps 647 mmHg 88%
    06:00 +19°C° 0.9 mm 2 mps 647 mmHg 85%
    07:00 +20°C° 0.9 mm 2 mps 648 mmHg 83%
    08:00 +20°C° 0.9 mm 2 mps 648 mmHg 80%
    09:00 +24°C° 0 mm 2 mps 649 mmHg 71%
    10:00 +26°C° 0 mm 2 mps 649 mmHg 62%
    11:00 +28°C° 0 mm 2 mps 649 mmHg 53%
    12:00 +28°C° 0 mm 3 mps 649 mmHg 49%
    13:00 +29°C° 0 mm 3 mps 649 mmHg 45%
    14:00 +30°C° 0 mm 3 mps 648 mmHg 41%
    15:00 +28°C° 0.1 mm 3 mps 648 mmHg 47%
    16:00 +27°C° 0.1 mm 3 mps 647 mmHg 53%
    17:00 +26°C° 0.1 mm 3 mps 647 mmHg 59%
    18:00 +25°C° 0.2 mm 3 mps 647 mmHg 65%
    19:00 +22°C° 0.2 mm 4 mps 648 mmHg 71%
    20:00 +21°C° 0.2 mm 4 mps 648 mmHg 77%
    21:00 +20°C° 0 mm 4 mps 648 mmHg 79%
    22:00 +20°C° 0 mm 4 mps 648 mmHg 82%
    23:00 +19°C° 0 mm 4 mps 648 mmHg 85%

    27 November, Monday

    Time Temperature Precipitation Wind Pressure Humidity
    00:00 +19°C° 0 mm 3 mps 648 mmHg 85%
    01:00 +18°C° 0 mm 3 mps 647 mmHg 86%
    02:00 +18°C° 0 mm 3 mps 647 mmHg 86%
    03:00 +18°C° 0 mm 3 mps 647 mmHg 86%
    04:00 +18°C° 0 mm 3 mps 648 mmHg 87%
    05:00 +17°C° 0 mm 3 mps 648 mmHg 87%
    06:00 +18°C° 0 mm 3 mps 649 mmHg 84%
    07:00 +19°C° 0 mm 3 mps 649 mmHg 81%
    08:00 +19°C° 0 mm 4 mps 650 mmHg 78%
    09:00 +20°C° 0 mm 4 mps 650 mmHg 73%
    10:00 +21°C° 0 mm 5 mps 651 mmHg 67%
    11:00 +22°C° 0 mm 5 mps 651 mmHg 62%
    12:00 +23°C° 0 mm 5 mps 651 mmHg 60%
    13:00 +23°C° 0 mm 5 mps 650 mmHg 59%
    14:00 +23°C° 0 mm 6 mps 650 mmHg 57%
    15:00 +22°C° 0 mm 6 mps 650 mmHg 59%
    16:00 +22°C° 0 mm 6 mps 650 mmHg 62%
    17:00 +21°C° 0 mm 6 mps 650 mmHg 64%
    18:00 +20°C° 0 mm 6 mps 650 mmHg 68%
    19:00 +19°C° 0 mm 6 mps 650 mmHg 72%
    20:00 +17°C° 0 mm 6 mps 650 mmHg 76%
    21:00 +17°C° 0 mm 6 mps 651 mmHg 77%
    22:00 +17°C° 0 mm 6 mps 651 mmHg 78%
    23:00 +16°C° 0 mm 6 mps 651 mmHg 78%

    28 November, Tuesday

    Time Temperature Precipitation Wind Pressure Humidity
    00:00 +16°C° 0 mm 6 mps 651 mmHg 79%
    01:00 +16°C° 0 mm 6 mps 650 mmHg 80%
    02:00 +15°C° 0 mm 6 mps 650 mmHg 80%
    03:00 +15°C° 0 mm 5 mps 650 mmHg 81%
    04:00 +15°C° 0 mm 5 mps 650 mmHg 81%
    05:00 +14°C° 0 mm 5 mps 650 mmHg 82%
    06:00 +15°C° 0 mm 5 mps 651 mmHg 80%
    07:00 +15°C° 0 mm 5 mps 651 mmHg 78%
    08:00 +15°C° 0 mm 5 mps 651 mmHg 76%
    09:00 +17°C° 0 mm 5 mps 652 mmHg 70%
    10:00 +19°C° 0 mm 5 mps 652 mmHg 64%
    11:00 +20°C° 0 mm 5 mps 652 mmHg 59%
    12:00 +22°C° 0 mm 4 mps 651 mmHg 54%
    13:00 +25°C° 0 mm 4 mps 651 mmHg 49%
    14:00 +26°C° 0 mm 3 mps 651 mmHg 43%
    15:00 +26°C° 0 mm 3 mps 651 mmHg 44%
    16:00 +26°C° 0 mm 4 mps 650 mmHg 44%
    17:00 +26°C° 0 mm 4 mps 650 mmHg 44%
    18:00 +23°C° 0 mm 4 mps 650 mmHg 51%
    19:00 +21°C° 0 mm 4 mps 650 mmHg 57%
    20:00 +19°C° 0 mm 4 mps 650 mmHg 64%
    21:00 +19°C° 0 mm 4 mps 650 mmHg 68%
    22:00 +18°C° 0 mm 4 mps 650 mmHg 72%
    23:00 +17°C° 0 mm 4 mps 650 mmHg 76%
    Show more